Powrót do katalogu

USA 484

AktywnyMilitariaVLEO
NORAD 62553·PAYLOAD·🇺🇸 United States

Wystrzelony Jan 10, 2025 z Vandenberg Space Force Base

Loading…

Następne Przeloty (najbliższe 24 godziny)

TLE

NieaktualneSource: Mike McCants

Epoka: Aug 26, 2026, 01:35 UTC

1 62553U 25005X   26238.06627079 0.00000000  00000-0  00000-0 0    04
2 62553  70.0144 226.3957 0002000 165.5945 194.4055 14.96713418    02

Śledź USA 484 w czasie rzeczywistym z AllMySat

Download on the App Store